Flag for Brazil Weather past 2 weeks in Foz do Iguaçu, Paraná, Brazil

Now
48 °F

Thunderstorms. Partly cloudy.


Feels Like: 46 °F
Forecast: 70 / 86 °F
Wind: 6 mph from Northwest

Location: Foz Do Iguacu Aeroporto


UV Index: 0 (Low)

Visibility: 4 mi


Pressure: 29.92 "Hg

Humidity: 100%

Dew point: 48 °F

Location of Foz do IguaçuLocation

Historic Weather in Foz do Iguaçu

°F

Foz do Iguaçu temperature yesterday

Maximum temperature yesterday: 86 °F (at 3:00 PM)
Minimum temperature yesterday: 66 °F (at 12:00 AM)
Average temperature yesterday: 73 °F

Past Weeks' High & Low Weather Summary

 TemperatureHumidityPressure
High91 °F (Apr 6, 2:00 PM)100% (Apr 9, 12:00 PM)30.18 "Hg (Apr 9, 12:00 PM)
Low34 °F (Apr 9, 4:00 PM)28% (Apr 9, 7:00 PM)29.71 "Hg (Apr 11, 6:00 PM)
Average73 °F81%29.95 "Hg
* Reported Apr 3 4:00 AM — Apr 18 4:00 AM, Foz do Iguaçu, Weather by CustomWeather, © 2014

Note: Actual official high and low records may vary slightly from our data, if they occured in-between our weather recording intervals... More about our weather records

Advertising

Historic Weather Conditions — Data for Previous 24 hours

 ConditionsComfort  
Time TempWeatherWind HumidityBarometerVisibility
4:00 AM
Apr 18
N/AThunderstorms.7 mphN/AN/A4 mi
3:00 AM66 °FPartly cloudy.3 mph100%29.98 "HgN/A
2:00 AMN/AThundershowers.5 mphN/AN/AN/A
1:00 AMN/AThundershowers.3 mphN/AN/AN/A
12:00 AM68 °FThunderstorms. Partly cloudy.14 mph94%N/A4 mi
11:00 PM
Apr 17
66 °FThunderstorms. Partly cloudy.6 mph100%N/A4 mi
10:00 PM66 °FThunderstorms. Partly cloudy.6 mph100%N/A3 mi
9:00 PM66 °FThunderstorms. Partly cloudy.5 mph94%N/A2 mi
8:00 PM70 °FThunderstorms. Passing clouds.9 mph78%29.95 "HgN/A
7:00 PM77 °FPassing clouds.No wind83%29.86 "HgN/A
6:00 PM79 °FPassing clouds.3 mph84%29.86 "HgN/A
5:00 PM82 °FPassing clouds.3 mph70%29.89 "HgN/A
4:00 PM84 °FScattered clouds.8 mph66%29.89 "HgN/A
3:00 PM86 °FScattered clouds.12 mph62%29.89 "HgN/A
2:00 PM84 °FScattered clouds.9 mph62%29.92 "HgN/A
1:00 PM84 °FScattered clouds.8 mph66%29.95 "HgN/A
12:00 PM82 °FPartly sunny.10 mph66%29.98 "HgN/A
11:00 AM81 °FScattered clouds.12 mph70%30.01 "HgN/A
10:00 AM77 °FSunny.6 mph79%30.01 "Hg10 mi
9:00 AM72 °FSunny.6 mph88%30.01 "Hg10 mi
8:00 AM68 °FClear.5 mph94%29.98 "Hg5 mi
7:00 AM66 °FClear.3 mph94%29.95 "Hg4 mi
6:00 AM66 °FSunny.5 mph94%29.95 "Hg10 mi
5:00 AM66 °FClear.5 mph100%29.92 "Hg10 mi
Weather by CustomWeather, © 2014

See weather overview